Location: Borea
(45.6167°N, 23.0167°E)
Time: 02:38:54
(UTC+00:00)

OPS 8068 - Pass Details

Date: 29 February 2024
Orbit: 631 x 963 km, 98.3° (Epoch: 13 April)

Event Time Altitude Azimuth Distance (km) Brightness Sun altitude
Rises 17:08:27 0° 5° (N) 3,375 ? -10.3°
Reaches altitude 10° 17:10:55 10° 356° (N) 2,487 ? -10.8°
Maximum altitude 17:15:52 34° 294° (WNW) 1,439 ? -11.6°
Drops below altitude 10° 17:21:06 10° 232° (SW) 2,636 ? -12.5°
Sets 17:23:48 0° 223° (SW) 3,604 ? -13.0°
